sat.trackr.live / text

‹ back to catalog

LKW-4

NORAD 43236 · 2018-025A

PAYLOAD ACTIVE UNKNOWN

§ Identity

Operator
Country
PRC
Launch date
2018-03-17
Launch site
JSC
Launch vehicle
Mass (kg)
RCS (m²)

External: N2YO · Heavens-Above · Gunter

§ Orbital elements

Epoch: 2026-09-19T22:57:51.477984Z

Period
91.69 min
Inclination
97.6373°
Eccentricity
0.0001880
Mean motion
15.70536544 rev/d
Perigee alt
356.1 km
Apogee alt
358.6 km
Semi-major
6,735.5 km
B*
3.8695e-4
RAAN
81.8835°
Arg perigee
313.9083°
Mean anomaly
46.2024°
Rev number
47,486

§ Raw data

LKW-41 43236U 18025A   26262.95684581  .00047534  00000+0  38695-3 0  99942 43236  97.6373  81.8835 0001880 313.9083  46.2024 15.70536544474869

JSON: /api/v1/satellites/43236 · /tle

For live sub-satellite position, see the globe view (requires WebGL).

§ Visibility from observer

Set your observer location to see the next 7 days of passes ≥ 10°. The values pass through the URL so the page stays shareable.

No JS? Fill the form by hand. The geolocation button needs JavaScript.

§ Radio — SatNOGS DB

ModeDescriptionDownlinkUplink
FM S-band telemetry 2.228 GHz
FM Telemetry 401.750 MHz

2 transmitters · refreshed weekly from db.satnogs.org